TimeHST,TemperatureF,Dew PointF,Humidity,Sea Level PressureIn,VisibilityMPH,Wind Direction,Wind SpeedMPH,Gust SpeedMPH,PrecipitationIn,Events,Conditions,WindDirDegrees,DateUTC
12:53 AM,75.9,66.9,74,29.94,10.0,East,10.4,-,N/A,,Partly Cloudy,90,2012-11-06 10:53:00
1:53 AM,75.9,66.9,74,29.93,10.0,East,10.4,-,N/A,,Scattered Clouds,80,2012-11-06 11:53:00
2:53 AM,75.9,66.9,74,29.92,10.0,East,12.7,-,N/A,,Partly Cloudy,80,2012-11-06 12:53:00
3:53 AM,75.0,66.9,76,29.92,10.0,NE,9.2,-,N/A,,Scattered Clouds,50,2012-11-06 13:53:00
4:53 AM,75.9,68.0,76,29.93,10.0,ENE,8.1,-,0.00,,Scattered Clouds,60,2012-11-06 14:53:00
5:53 AM,75.0,68.0,79,29.94,10.0,ENE,10.4,-,0.00,,Scattered Clouds,60,2012-11-06 15:53:00
6:53 AM,75.0,66.9,76,29.94,10.0,NE,9.2,-,N/A,,Scattered Clouds,50,2012-11-06 16:53:00
7:53 AM,75.9,69.1,79,29.96,10.0,ENE,16.1,20.7,0.00,Rain,Light Rain,70,2012-11-06 17:53:00
8:53 AM,80.1,68.0,67,29.96,10.0,ENE,15.0,-,0.00,,Scattered Clouds,70,2012-11-06 18:53:00
9:53 AM,81.0,66.9,62,29.97,10.0,NE,12.7,-,0.00,,Mostly Cloudy,50,2012-11-06 19:53:00
10:53 AM,82.0,66.9,60,29.96,10.0,ENE,17.3,21.9,N/A,,Scattered Clouds,60,2012-11-06 20:53:00
11:53 AM,82.9,64.9,54,29.94,10.0,ENE,18.4,-,N/A,,Mostly Cloudy,60,2012-11-06 21:53:00
12:53 PM,84.0,63.0,49,29.91,10.0,ENE,18.4,26.5,N/A,,Mostly Cloudy,70,2012-11-06 22:53:00
1:53 PM,84.9,63.0,48,29.89,10.0,ENE,17.3,-,N/A,,Scattered Clouds,70,2012-11-06 23:53:00
2:53 PM,82.9,66.0,56,29.89,10.0,NNE,15.0,19.6,N/A,,Mostly Cloudy,30,2012-11-07 00:53:00
3:53 PM,82.0,64.9,56,29.89,10.0,NNE,12.7,20.7,N/A,,Mostly Cloudy,30,2012-11-07 01:53:00
4:02 PM,82.4,64.4,54,29.89,10.0,ENE,12.7,-,N/A,,Mostly Cloudy,70,2012-11-07 02:02:00
4:53 PM,78.1,66.9,68,29.91,10.0,NE,9.2,-,0.00,,Mostly Cloudy,40,2012-11-07 02:53:00
5:53 PM,78.1,66.0,66,29.91,10.0,ENE,16.1,21.9,0.00,,Mostly Cloudy,70,2012-11-07 03:53:00
6:53 PM,77.0,64.9,66,29.94,10.0,North,5.8,-,N/A,,Mostly Cloudy,10,2012-11-07 04:53:00
7:53 PM,77.0,64.9,66,29.95,10.0,ENE,12.7,-,N/A,,Mostly Cloudy,70,2012-11-07 05:53:00
8:53 PM,77.0,64.9,66,29.97,10.0,NNE,6.9,-,N/A,,Mostly Cloudy,30,2012-11-07 06:53:00
9:53 PM,77.0,66.0,69,29.98,10.0,ENE,10.4,-,N/A,,Mostly Cloudy,70,2012-11-07 07:53:00
10:53 PM,75.9,66.0,71,29.98,10.0,NE,9.2,-,0.00,,Mostly Cloudy,50,2012-11-07 08:53:00
11:53 PM,75.9,66.0,71,29.97,10.0,ENE,12.7,-,N/A,,Partly Cloudy,60,2012-11-07 09:53:00